Location: Aldenham
(51.6667°N, 0.3500°W)
Time: 11:42:18
(UTC+00:00)

A-11 Canister half - Pass Details

Date: 24 February 2026
Orbit: 1513 x 1686 km, 47.2° (Epoch: 17 March)

Event Time Altitude Azimuth Distance (km) Brightness Sun altitude
Rises 22:14:50 0° 266° (W) 4,940 12.0 -41.0°
Reaches altitude 10° 22:18:02 10° 264° (W) 3,945 11.4 -41.3°
Enters shadow 22:24:20 43° 251° (WSW) 2,203 9.7 -41.9°
Maximum altitude 22:28:04 69° 184° (S) 1,749 - -42.3°
Drops below altitude 10° 22:37:49 10° 104° (ESE) 3,839 - -43.1°
Sets 22:40:53 0° 102° (ESE) 4,801 - -43.4°
